Temperature
31 33 33 33 33 33 33 32 32 31 31 31 30 30 29 28 27 27 26 25 24 24 23 22 21 21 20 19 19 19 19 19 19 18 18 18 18 18 18 17 18 18 17 17
32 32 33 33 33 32 32 32 32 31 31 31 30 30 30 29 28 27 26 25 25 24 23 22 21 21 20 20 19 19 19 19 19 18 18 18 18 18 18 18 18 18 17 18
32 33 33 32 32 32 32 32 32 31 31 31 30 30 30 29 28 27 27 26 25 25 24 22 22 21 21 20 20 19 19 19 19 19 18 18 18 18 18 18 18 17 17 17
32 33 32 32 32 32 32 32 32 31 31 31 31 31 30 30 29 28 27 26 26 25 24 23 22 22 21 21 20 20 19 19 19 19 18 18 18 18 18 18 18 17 17 17
32 32 31 32 32 32 32 32 32 32 31 31 31 31 31 30 30 29 28 27 26 25 24 23 23 22 21 21 20 20 20 19 19 19 19 18 18 18 18 18 18 18 17 17
32 32 32 32 32 32 31 31 31 31 32 31 31 31 31 31 30 30 29 27 26 26 24 23 23 22 21 21 20 20 20 20 19 19 19 18 18 18 18 18 18 18 18 17
31 31 32 32 31 31 31 31 30 30 30 31 30 30 31 31 30 30 30 28 26 25 25 24 23 22 21 21 20 20 20 20 19 19 18 18 18 18 18 18 18 18 18 18
30 30 31 32 32 31 31 32 30 30 30 31 30 30 31 30 29 29 28 28 26 26 25 24 23 22 21 21 20 20 20 19 19 19 19 18 18 18 18 18 18 18 17 17
31 31 32 31 32 32 31 32 33 32 31 31 31 31 31 30 30 29 28 27 26 26 25 24 23 22 21 21 20 20 20 19 19 19 19 18 18 18 18 18 18 17 17 17
31 30 31 31 31 31 32 32 32 31 30 30 30 31 31 30 30 29 29 28 26 25 25 24 23 22 22 21 20 20 19 19 19 19 19 18 18 18 18 18 18 17 17 17
31 30 30 30 30 31 30 31 31 31 31 30 30 31 31 30 30 29 28 27 26 25 24 24 23 22 22 21 20 20 20 19 19 19 19 18 18 18 17 17 17 17 17 17
30 31 30 30 31 31 31 31 31 30 30 30 31 30 30 30 30 29 28 26 25 25 24 23 23 22 22 21 20 20 20 19 19 19 19 18 18 17 17 17 17 17 17 17
29 29 29 29 30 30 30 31 31 31 31 31 31 30 29 28 28 27 27 25 24 24 23 23 22 22 21 21 20 20 19 19 19 19 18 18 18 17 17 17 17 17 17 17
28 29 29 30 30 31 30 30 30 31 31 31 31 30 29 28 28 27 26 25 24 23 22 22 22 21 21 20 20 20 19 19 19 19 18 18 18 17 17 17 17 17 17 17
28 29 29 30 30 30 30 30 30 30 31 31 31 30 29 28 28 26 25 24 23 23 22 22 21 21 20 20 20 19 19 19 19 18 18 18 18 17 17 17 16 16 16 16
27 28 28 28 29 29 29 29 29 30 30 30 30 29 29 27 26 25 24 24 23 22 22 21 21 20 20 20 19 19 19 19 19 18 18 18 18 17 17 16 16 16 16 16
27 27 27 28 28 28 28 29 29 29 29 30 29 29 28 27 26 25 24 23 22 22 21 21 20 20 20 19 19 19 19 19 18 18 18 18 17 17 17 16 16 16 16 16
25 26 27 28 27 26 28 29 28 28 28 28 28 27 27 26 24 23 23 22 21 21 21 20 20 20 20 19 19 19 19 18 18 18 18 17 17 17 17 16 16 16 16 15
25 25 27 27 27 27 27 27 28 27 27 27 27 26 26 25 24 24 22 21 21 20 20 20 20 20 19 19 19 19 18 18 18 18 17 17 17 17 16 16 16 16 15 15
24 24 26 26 26 26 27 27 26 27 26 26 26 25 25 25 27 25 21 20 20 19 19 19 19 19 19 18 18 18 18 18 18 18 17 17 17 17 16 16 16 15 15 15
24 24 25 26 26 26 25 25 25 25 25 24 24 24 24 24 24 22 20 20 19 19 19 18 18 18 18 18 18 18 18 17 17 17 17 17 17 17 16 16 15 15 15 14
24 25 24 25 25 25 24 24 25 24 22 22 22 22 22 21 20 20 20 19 19 19 18 18 18 18 18 18 18 17 17 17 17 17 17 16 16 16 16 16 15 15 14 14
23 23 24 24 24 22 21 22 21 21 21 21 21 21 21 20 20 20 19 19 18 18 18 18 18 17 17 17 17 17 17 17 17 16 16 16 16 16 16 15 15 15 14 14
21 21 22 22 22 21 21 20 20 20 20 20 20 20 20 20 20 19 19 18 18 18 17 17 17 17 17 17 17 17 17 17 16 16 16 16 16 16 15 15 15 14 14 14
21 21 22 21 21 21 20 19 19 19 19 19 19 19 19 19 19 19 18 18 17 17 17 17 17 16 16 16 16 16 16 16 16 16 15 15 15 15 15 15 14 14 14 14
21 21 21 21 20 20 19 19 18 18 18 19 18 18 18 18 18 18 18 17 17 17 17 16 16 16 16 16 16 16 16 16 15 15 15 15 15 15 15 14 14 14 14 14
Wind_Speed
9 11 11 9 7 4 4 4 3 2 3 4 4 3 5 9 10 10 9 9 9 9 9 8 8 7 7 6 6 6 5 5 4 3 3 3 2 2 2 2 1 1 2 2
10 13 10 6 6 6 7 6 5 4 3 4 3 3 4 8 11 10 10 10 10 10 10 9 9 9 8 8 7 6 6 6 5 4 2 2 1 1 2 1 2 1 1 2
15 9 8 8 9 9 8 7 5 4 5 6 4 5 6 7 9 10 10 10 10 11 11 11 10 10 9 9 8 6 6 6 5 4 4 3 2 2 2 2 2 2 2 2
13 9 9 11 11 10 9 6 5 6 7 4 5 3 4 7 9 10 11 11 11 11 11 11 11 11 10 9 8 7 7 6 6 5 4 3 3 2 1 1 1 2 2 2
11 12 12 13 11 10 5 4 6 7 7 6 5 5 2 6 6 9 11 12 12 12 12 12 12 11 10 9 9 8 7 7 6 5 5 4 3 2 1 1 2 2 2 2
9 8 10 9 7 7 7 6 5 7 8 7 4 6 2 3 3 5 8 11 12 12 12 11 11 11 10 9 8 8 8 7 6 6 5 4 3 3 2 2 2 2 2 2
12 10 8 8 10 10 10 9 7 8 7 5 3 5 2 1 1 2 5 9 11 12 12 12 12 12 10 10 9 8 8 7 6 6 5 4 4 4 4 3 3 2 2 1
15 14 13 11 12 11 14 14 9 7 6 5 5 5 1 1 1 2 4 7 10 11 11 12 12 11 11 10 9 9 8 7 6 6 5 4 4 4 3 2 2 2 2 1
12 12 11 10 9 10 12 13 11 9 8 7 4 4 3 3 3 4 5 7 9 10 11 11 11 11 10 10 9 8 8 7 6 6 5 4 4 3 2 2 3 2 2 1
8 10 11 9 8 6 9 10 9 10 8 9 7 7 4 3 3 4 5 7 9 10 10 10 10 11 10 9 9 8 8 7 6 6 5 4 4 3 3 3 1 1 1 1
10 10 11 11 12 13 10 11 10 9 9 10 8 3 1 2 3 3 4 6 8 9 10 10 9 10 10 9 9 9 8 7 6 6 5 4 4 3 3 3 2 2 1 1
10 9 10 11 7 6 11 12 13 11 9 10 10 3 4 2 2 3 4 5 7 8 8 9 9 9 10 10 9 8 8 7 7 6 5 4 4 3 3 3 2 2 2 1
7 9 11 11 10 9 10 11 12 12 10 10 11 5 5 3 3 3 4 6 6 7 7 8 8 9 9 9 8 8 7 7 6 6 5 5 4 4 3 3 3 2 2 1
6 10 12 13 10 11 11 11 12 13 12 11 11 6 4 4 3 3 4 6 7 7 7 7 7 7 8 7 7 7 7 7 7 6 6 5 4 4 4 4 3 3 2 2
6 10 10 8 5 8 10 11 12 14 13 12 9 8 5 5 4 4 5 6 6 6 6 7 7 8 8 8 8 7 7 7 7 7 6 6 4 4 4 3 3 3 2 2
5 8 9 10 9 9 9 10 12 12 11 11 8 6 3 3 4 5 6 6 5 5 5 6 6 7 7 7 7 8 8 7 7 6 6 5 5 4 4 4 3 3 2 2
6 8 10 12 11 11 13 11 12 11 10 11 10 6 5 5 5 5 5 5 4 4 4 5 5 6 6 6 7 7 7 7 7 6 6 6 5 5 5 5 4 4 3 3
7 8 9 10 10 16 8 5 7 9 9 7 5 5 6 5 4 4 4 4 4 3 3 3 4 4 5 5 6 6 7 7 7 7 6 6 6 6 5 5 5 5 4 3
7 8 8 10 13 12 8 7 8 9 8 6 6 6 5 5 6 5 4 3 3 3 3 3 4 4 4 5 5 6 7 7 7 7 7 7 7 6 6 5 5 4 4 3
6 8 9 10 13 13 7 5 4 7 9 6 6 7 6 6 7 5 3 2 2 2 2 2 3 3 4 4 5 6 6 7 7 7 7 7 7 6 6 5 5 4 4 4
9 8 11 12 12 7 2 3 6 9 3 4 5 5 6 5 1 3 2 2 2 2 2 2 2 3 3 4 4 5 5 5 5 6 6 6 6 6 6 6 6 5 5 5
8 8 8 9 11 7 3 3 4 1 3 2 4 4 3 2 3 3 2 2 2 3 2 2 2 2 2 3 5 5 4 4 4 5 6 6 6 6 6 6 6 6 6 6
4 3 4 4 2 3 3 1 1 1 0 2 3 2 2 3 3 2 2 2 2 2 2 2 2 2 2 2 3 4 4 3 4 5 5 6 5 5 6 7 7 7 6 6
4 3 4 3 2 2 1 1 1 1 1 1 2 2 2 2 3 2 2 2 2 2 2 3 3 3 2 2 3 3 3 4 4 5 5 5 5 6 6 5 6 6 6 6
3 3 4 5 3 2 2 0 1 1 1 1 1 1 1 2 2 2 2 2 2 2 3 3 3 3 3 3 3 3 3 4 5 5 5 5 5 5 5 5 4 5 4 4
4 5 6 5 3 3 3 1 1 1 2 1 1 1 1 1 2 2 2 2 3 3 3 3 4 4 4 4 4 3 3 5 5 5 6 5 5 5 5 5 4 1 2 2
Wind_Direction
195 214 216 211 223 251 228 223 198 145 156 207 216 209 175 181 191 189 189 190 190 190 179 177 178 178 175 175 176 179 183 177 188 189 194 183 177 177 175 174 150 185 204 190
203 219 217 208 209 217 221 223 207 162 169 224 232 233 193 192 199 199 195 193 195 188 179 179 181 181 183 180 181 183 184 181 190 183 194 193 190 189 167 162 144 196 208 219
219 209 186 196 202 214 220 233 227 198 181 209 245 219 188 188 197 199 202 199 197 193 187 183 184 185 186 186 186 187 185 183 189 188 191 185 182 200 184 183 184 203 210 219
223 204 194 207 214 222 222 220 228 211 222 221 243 263 162 181 191 198 200 198 197 194 192 189 187 186 189 189 185 184 184 184 186 196 202 205 208 212 203 213 176 195 212 227
208 202 202 213 216 222 223 190 214 221 237 251 225 267 153 169 197 200 199 199 198 194 192 192 192 189 189 188 184 181 181 183 186 196 200 214 223 218 213 215 181 223 215 227
210 199 211 215 203 198 165 170 189 222 237 240 237 260 243 175 202 198 191 194 195 192 189 190 190 185 185 184 182 178 177 182 188 196 200 215 224 226 230 233 223 223 215 221
204 201 198 195 182 181 198 209 217 218 222 231 195 249 266 75 192 221 193 185 188 189 187 185 184 181 180 181 180 177 176 180 185 192 200 207 217 221 224 231 220 239 241 228
203 201 193 198 210 203 211 223 233 246 241 214 194 240 215 121 172 202 190 177 178 183 185 183 181 179 178 178 179 179 177 180 182 187 195 203 215 227 224 232 253 243 259 273
208 204 184 197 216 220 211 225 243 249 259 257 223 219 216 180 181 182 178 170 174 179 179 179 178 178 176 178 179 177 175 178 181 183 190 194 202 220 224 222 233 235 239 241
220 208 189 185 194 217 237 223 227 240 243 252 241 236 229 202 190 181 182 177 175 176 174 175 176 175 173 173 173 174 174 175 176 179 189 184 192 201 208 217 212 239 243 255
224 215 195 191 210 204 198 211 226 239 248 254 255 234 133 192 188 189 184 175 175 178 176 174 174 174 169 170 173 173 170 171 175 175 176 182 184 189 195 197 198 203 206 202
215 221 211 203 203 236 219 220 219 231 234 245 265 246 100 120 145 152 154 158 167 175 173 172 171 171 172 174 173 173 174 176 176 173 172 178 178 177 184 184 188 184 177 191
201 216 209 203 199 203 215 218 225 237 240 242 251 226 126 114 116 127 134 146 157 168 170 171 170 172 175 175 173 173 177 176 171 167 171 172 180 182 185 187 180 168 169 176
215 222 229 228 217 198 206 211 218 229 237 239 246 236 177 172 160 143 141 145 151 158 166 171 170 173 173 172 171 175 179 177 173 172 176 176 181 181 181 184 178 172 167 162
218 222 226 239 226 213 215 215 215 226 243 251 245 235 200 188 177 156 148 146 148 156 166 171 173 170 173 174 174 179 183 181 178 179 180 178 173 174 181 180 173 168 167 160
217 221 212 222 220 214 219 219 218 226 235 241 238 230 187 163 147 142 144 147 151 163 172 176 181 179 179 183 184 180 179 176 178 181 179 174 174 174 178 176 172 169 170 176
204 208 219 222 215 221 227 224 223 225 231 237 238 225 175 169 165 160 158 155 153 164 172 183 190 189 188 190 189 185 179 173 177 179 178 176 176 178 182 182 178 182 186 182
214 218 222 224 213 232 227 212 221 225 233 237 238 206 192 180 166 162 163 161 161 164 174 188 193 190 194 194 188 185 179 177 178 181 182 182 183 184 183 183 186 191 191 191
216 215 223 225 226 226 215 210 216 225 228 225 215 196 182 169 165 158 143 148 168 173 179 189 199 193 190 187 182 186 189 184 184 186 186 187 189 186 186 190 195 195 191 194
192 219 225 225 234 233 214 179 212 226 224 204 197 187 179 183 208 164 137 161 163 151 158 174 187 182 181 181 186 192 198 197 196 193 190 188 188 188 191 193 196 195 200 201
191 209 223 225 232 230 110 159 196 223 229 153 179 182 189 204 247 126 153 155 155 156 156 161 171 179 183 182 187 196 200 208 204 194 190 189 185 188 197 197 201 197 200 204
213 210 219 226 231 221 94 171 213 2 52 153 170 177 181 152 131 144 150 152 157 157 161 166 166 172 176 183 191 198 200 205 201 197 194 197 195 196 194 197 204 207 204 203
226 255 241 243 231 77 100 122 54 12 143 172 172 162 161 166 170 162 171 177 180 175 173 182 182 181 179 190 200 208 202 193 199 204 205 203 197 199 200 202 207 204 204 212
198 262 243 226 182 146 126 95 60 58 102 135 157 160 176 195 196 194 194 191 191 200 198 197 199 199 202 207 216 219 205 189 194 205 210 204 202 203 204 212 215 215 207 215
229 220 224 228 218 219 206 235 39 52 79 80 94 175 207 208 212 214 206 198 209 215 219 218 218 219 221 220 227 224 223 211 204 208 216 213 213 206 208 218 230 231 230 236
232 240 241 241 216 237 232 253 297 297 296 300 293 282 279 269 251 242 233 221 228 227 220 223 227 230 233 232 236 230 224 225 212 213 216 217 214 204 210 209 217 257 257 201
Height
1491 1490 1489 1487 1486 1487 1489 1493 1496 1496 1497 1499 1501 1502 1504 1509 1512 1515 1519 1522 1524 1526 1529 1531 1533 1534 1535 1536 1536 1537 1538 1538 1539 1540 1541 1542 1543 1542 1543 1543 1543 1543 1544 1544
1489 1488 1483 1484 1487 1489 1490 1494 1495 1496 1497 1498 1499 1500 1501 1505 1509 1512 1516 1519 1521 1524 1527 1529 1531 1533 1534 1535 1535 1536 1537 1538 1539 1540 1540 1541 1541 1542 1542 1543 1542 1543 1543 1543
1485 1482 1483 1487 1490 1491 1491 1491 1492 1495 1497 1497 1499 1500 1499 1502 1506 1510 1513 1515 1518 1521 1524 1527 1529 1531 1532 1533 1534 1536 1536 1537 1538 1539 1540 1541 1541 1541 1542 1542 1542 1542 1542 1542
1481 1481 1485 1487 1488 1487 1492 1486 1489 1493 1498 1496 1498 1503 1496 1496 1501 1505 1508 1512 1515 1518 1521 1524 1526 1528 1530 1531 1533 1534 1535 1536 1537 1538 1539 1540 1541 1541 1541 1541 1541 1541 1541 1541
1480 1481 1484 1486 1484 1485 1486 1486 1489 1491 1494 1496 1495 1500 1494 1493 1497 1499 1503 1507 1511 1514 1518 1520 1523 1525 1528 1530 1531 1532 1533 1534 1535 1537 1537 1538 1540 1540 1540 1540 1539 1539 1540 1540
1476 1479 1480 1480 1482 1485 1487 1490 1492 1491 1490 1504 1497 1500 1499 1489 1492 1493 1497 1503 1507 1511 1515 1518 1521 1523 1525 1528 1529 1531 1531 1533 1534 1535 1536 1537 1538 1538 1538 1538 1538 1539 1539 1539
1482 1479 1479 1481 1484 1487 1487 1494 1504 1507 1505 1503 1494 1498 1495 1487 1489 1491 1494 1499 1504 1508 1511 1515 1518 1521 1523 1525 1527 1529 1530 1531 1532 1534 1535 1536 1536 1536 1537 1537 1537 1537 1538 1538
1483 1485 1478 1478 1479 1482 1484 1485 1502 1513 1508 1497 1497 1497 1489 1486 1490 1492 1494 1497 1501 1505 1508 1512 1515 1518 1521 1523 1525 1527 1528 1529 1531 1532 1533 1534 1535 1536 1536 1536 1536 1536 1536 1536
1473 1478 1473 1475 1476 1477 1482 1482 1476 1487 1492 1497 1492 1489 1485 1485 1488 1491 1493 1496 1500 1503 1506 1510 1513 1516 1519 1521 1523 1525 1526 1528 1529 1530 1531 1532 1533 1533 1534 1534 1534 1534 1534 1534
1466 1477 1473 1475 1477 1478 1475 1474 1481 1486 1504 1507 1497 1492 1488 1486 1486 1488 1491 1495 1499 1502 1505 1508 1511 1514 1517 1519 1521 1523 1525 1526 1527 1529 1530 1531 1531 1532 1532 1532 1532 1532 1532 1532
1465 1474 1475 1475 1477 1476 1480 1481 1480 1481 1484 1498 1502 1493 1478 1482 1484 1487 1490 1493 1497 1500 1503 1506 1509 1512 1515 1517 1520 1521 1523 1524 1526 1527 1528 1529 1530 1530 1530 1531 1531 1531 1530 1530
1467 1468 1474 1472 1470 1470 1471 1473 1478 1488 1491 1487 1490 1490 1478 1481 1483 1486 1489 1493 1496 1500 1502 1505 1508 1511 1513 1516 1518 1520 1521 1523 1524 1525 1526 1527 1528 1528 1529 1529 1529 1529 1529 1529
1467 1470 1482 1481 1479 1475 1473 1471 1472 1473 1479 1483 1488 1489 1480 1483 1485 1488 1490 1493 1496 1499 1502 1504 1507 1509 1511 1514 1516 1518 1520 1521 1523 1524 1524 1525 1525 1526 1526 1527 1527 1527 1527 1527
1469 1467 1472 1476 1469 1466 1473 1473 1472 1474 1477 1480 1480 1480 1481 1483 1485 1488 1491 1494 1496 1499 1501 1503 1505 1508 1510 1512 1514 1516 1518 1519 1520 1521 1522 1523 1523 1524 1524 1525 1525 1525 1525 1525
1467 1468 1466 1463 1461 1463 1467 1470 1471 1473 1471 1473 1473 1474 1478 1481 1485 1489 1491 1494 1496 1498 1500 1502 1504 1506 1508 1510 1511 1513 1515 1517 1518 1519 1520 1520 1521 1522 1522 1523 1523 1524 1524 1524
1467 1468 1468 1470 1465 1465 1469 1469 1470 1471 1470 1470 1471 1475 1476 1481 1486 1489 1491 1493 1495 1497 1499 1501 1503 1505 1506 1508 1509 1511 1513 1514 1515 1516 1518 1518 1519 1520 1521 1521 1522 1522 1522 1522
1466 1469 1472 1471 1467 1469 1475 1468 1468 1469 1468 1469 1472 1474 1477 1482 1485 1488 1491 1493 1495 1496 1498 1500 1501 1503 1504 1506 1507 1508 1510 1511 1512 1514 1515 1516 1517 1518 1519 1519 1520 1520 1520 1520
1469 1469 1468 1468 1475 1485 1469 1463 1465 1468 1469 1469 1471 1474 1478 1482 1486 1488 1491 1493 1494 1495 1497 1498 1499 1501 1502 1504 1505 1506 1507 1508 1509 1511 1512 1514 1515 1516 1516 1517 1517 1518 1518 1518
1467 1469 1467 1468 1473 1471 1467 1465 1466 1469 1471 1471 1472 1475 1478 1482 1484 1487 1490 1492 1493 1494 1495 1496 1498 1499 1500 1502 1502 1504 1505 1506 1507 1508 1510 1511 1512 1513 1513 1514 1515 1515 1516 1516
1468 1468 1467 1468 1473 1474 1465 1463 1467 1469 1473 1472 1474 1476 1478 1480 1478 1483 1489 1490 1492 1493 1494 1495 1496 1497 1498 1499 1500 1501 1503 1504 1504 1505 1507 1508 1509 1509 1510 1511 1512 1513 1513 1514
1467 1469 1466 1467 1469 1463 1465 1467 1469 1476 1473 1473 1475 1477 1479 1479 1480 1485 1487 1489 1490 1491 1492 1493 1494 1495 1496 1496 1498 1499 1500 1501 1502 1503 1504 1505 1505 1506 1507 1508 1509 1510 1510 1511
1463 1464 1467 1464 1468 1469 1468 1468 1470 1472 1475 1475 1477 1479 1480 1482 1483 1485 1486 1488 1489 1490 1491 1492 1492 1493 1494 1494 1495 1496 1497 1498 1499 1499 1500 1501 1502 1503 1504 1505 1506 1506 1507 1507
1464 1465 1461 1463 1468 1471 1471 1472 1475 1476 1476 1477 1478 1479 1481 1482 1483 1485 1486 1487 1488 1489 1489 1490 1491 1491 1492 1492 1493 1493 1494 1495 1495 1496 1497 1498 1498 1499 1500 1501 1501 1502 1503 1504
1467 1469 1466 1468 1468 1471 1473 1474 1475 1476 1477 1478 1479 1480 1481 1482 1483 1484 1485 1486 1486 1487 1488 1488 1489 1489 1489 1489 1490 1491 1491 1491 1492 1494 1495 1495 1496 1496 1497 1498 1499 1499 1499 1500
1467 1468 1467 1468 1471 1472 1473 1475 1476 1476 1477 1478 1479 1480 1481 1481 1482 1483 1483 1484 1484 1485 1486 1486 1486 1486 1486 1486 1487 1486 1488 1489 1489 1491 1491 1492 1493 1493 1494 1494 1495 1496 1496 1497
1468 1468 1466 1466 1471 1472 1474 1475 1476 1476 1476 1477 1478 1479 1480 1480 1481 1481 1481 1482 1482 1482 1483 1483 1484 1484 1484 1483 1483 1483 1484 1485 1485 1487 1488 1489 1490 1490 1490 1490 1491 1491 1492 1492